This demonstration page uses our WeatherBlox Daily Observations layout. Learn more.

Left ArrowRight Arrow

Hourly Observations for March 30, 2016

Temp ( °F °C ) Dew Point ( °F °C ) Humidity (%) Winds ( mph kmh ) Pressure ( in mb ) Visibility ( mi km ) Precip ( " mm )
12:54 am 00:54 Cloudy 60 15.6 33 0.6 36 36 SSE 17 28 29.69 1005 10 16 0.00 0.00
1:54 am 01:54 Cloudy 60 15.6 33 0.6 36 36 SSE 20 31 29.65 1004 10 16 0.00 0.00
2:54 am 02:54 Cloudy 60 15.6 33 0.6 36 36 SSE 20 31 29.62 1003 10 16 0.00 0.00
3:54 am 03:54 Cloudy 59 15 34 1.1 39 39 S 22 35 29.60 1002 10 16 0.00 0.00
4:54 am 04:54 Cloudy 58 14.4 36 2.2 44 44 S 15 24 29.60 1002 10 16 0.00 0.00
5:54 am 05:54 Cloudy 59 15 40 4.4 49 49 S 16 26 29.57 1001 10 16 0.00 0.00
6:16 am 06:16 Mostly Cloudy 58 14.4 42 5.6 56 56 SSE 13 20 29.56 1001 10 16 0.00 0.00
6:26 am 06:26 Mostly Cloudy 57 14 43 6 59 59 SSE 15 24 29.56 1001 10 16 0.00 0.00
6:54 am 06:54 Mostly Cloudy 58 14.4 43 6.1 58 58 S 15 24 29.55 1001 10 16 0.00 0.00
7:24 am 07:24 Mostly Cloudy 57 14 45 7 63 63 SSE 10 17 29.56 1001 10 16 0.00 0.00
7:54 am 07:54 Cloudy 59 15 46 7.8 62 62 SSE 6 9 29.55 1001 9 14 0.00 0.00
8:54 am 08:54 Mostly Cloudy 60 15.6 49 9.4 67 67 SSE 10 17 29.53 1000 9 14 0.00 0.00
9:01 am 09:01 Mostly Cloudy 61 16 48 9 63 63 SSE 12 19 29.56 1001 8 13 0.00 0.00
9:09 am 09:09 Mostly Cloudy 61 16.1 49 9.4 65 65 SSE 10 17 29.56 1001 9 14 0.00 0.00
9:54 am 09:54 Partly Cloudy 63 17.2 52 11.1 68 68 S 12 19 29.51 999 8 13 0.00 0.00
10:54 am 10:54 Partly Cloudy 68 20 57 13.9 68 68 S 18 30 29.49 999 8 13 0.00 0.00
11:31 am 11:31 Mostly Cloudy 68 20 57 13.9 68 68 SSW 17 28 29.47 998 8 13 0.00 0.00
11:54 am 11:54 Cloudy 68 20 57 13.9 68 68 SSW 20 31 29.49 999 8 13 0.00 0.00
12:54 pm 12:54 Partly Cloudy 71 21.7 56 13.3 59 59 SW 16 26 29.47 998 9 14 0.00 0.00
1:54 pm 13:54 Cloudy 71 21.7 56 13.3 59 59 SW 10 17 29.46 998 9 14 0.00 0.00
2:54 pm 14:54 Partly Cloudy 75 23.9 55 12.8 50 50 SSW 7 11 29.41 996 10 16 0.00 0.00
3:54 pm 15:54 Mostly Sunny 77 25 51 10.6 40 40 WSW 13 20 29.39 995 10 16 0.00 0.00
4:49 pm 16:49 Mostly Cloudy 73 23 54 12 50 50 N 22 35 29.38 995 9 14 0.00 0.00
4:54 pm 16:54 Partly Cloudy 73 22.8 52 11.1 48 48 NNE 18 30 29.37 995 9 14 0.00 0.00
5:01 pm 17:01 Partly Cloudy 73 22.8 53 11.7 50 50 N 23 37 29.38 995 8 13 0.00 0.00
5:54 pm 17:54 Sunny 69 20.6 53 11.7 57 57 N 16 26 29.41 996 8 13 0.00 0.00
6:54 pm 18:54 Sunny 63 17.2 49 9.4 60 60 N 16 26 29.42 996 8 13 0.00 0.00
7:54 pm 19:54 Clear 58 14.4 47 8.3 67 67 N 13 20 29.46 998 8 13 0.00 0.00
8:11 pm 20:11 Mostly Cloudy 59 15 47 8.3 64 64 N 12 19 29.47 998 9 14 0.00 0.00
8:49 pm 20:49 Cloudy with Light Rain 57 14 48 9 72 72 N 17 28 29.50 999 7 11 0.01 0.25
8:52 pm 20:52 Cloudy with Nearby Thunderstorms 55 13 48 9 77 77 N 15 24 29.50 999 6 10 0.00 0.00
8:54 pm 20:54 Cloudy with Nearby Thunderstorms 55 12.8 49 9.4 80 80 N 15 24 29.48 998 6 10 0.01 0.25
8:58 pm 20:58 Mostly Cloudy with Nearby Thunderstorms 55 13 48 9 77 77 N 12 19 29.50 999 7 11 0.00 0.00
9:11 pm 21:11 Mostly Clear 55 12.8 50 10 83 83 NNW 9 15 29.50 999 10 16 0.00 0.03
9:54 pm 21:54 Clear 52 11.1 49 9.4 89 89 N 13 20 29.51 999 8 13 0.00 0.03
10:54 pm 22:54 Clear 50 10 47 8.3 89 89 NNW 10 17 29.51 999 8 13 0.00 0.00
11:26 pm 23:26 Mostly Cloudy 52 11 48 9 88 88 NNW 12 19 29.56 1001 8 13 0.00 0.00
11:54 pm 23:54 Cloudy 51 10.6 47 8.3 86 86 NNW 15 24 29.51 999 8 13 0.00 0.00

Powered by AerisWeather